Probability
0 0 0 0 0 0 0 0 0 0 0 0 0 0 0 0 0 0 0 0 0 0 0 0 0 0 0 0 0 0 0 1 1 1 0 1 2 3
0 0 0 0 0 0 0 0 0 0 0 0 0 0 0 0 0 0 0 0 0 0 0 0 0 0 0 0 0 0 0 0 0 0 0 1 2 3
0 0 0 0 0 0 0 0 0 0 0 0 0 0 0 0 0 0 0 0 0 0 0 0 0 0 0 0 0 0 0 0 0 0 0 1 2 2
0 0 0 0 0 0 0 0 0 0 0 0 0 0 0 0 0 0 0 0 0 0 0 0 0 0 0 0 0 0 0 0 0 0 0 0 1 1
0 0 0 0 0 0 0 0 0 0 0 0 0 0 0 0 0 0 0 0 0 0 0 0 0 0 0 0 0 0 0 0 0 0 0 0 0 0
0 0 0 0 0 0 0 0 0 0 0 0 0 0 0 0 0 0 0 0 0 0 0 0 0 0 0 0 0 0 0 0 0 0 0 0 0 0
0 0 0 0 0 0 0 0 0 0 0 0 0 0 0 0 0 0 0 0 0 0 0 0 0 0 0 0 0 0 0 0 0 0 0 0 0 0
0 0 0 0 0 0 0 0 0 0 0 0 0 0 0 0 0 0 0 0 0 0 0 0 0 0 0 0 0 0 0 0 0 0 0 0 0 0
0 0 0 0 0 0 0 0 0 0 0 0 0 0 0 0 0 0 0 0 0 0 0 0 0 0 0 0 0 0 0 0 0 0 0 0 0 0
0 0 0 0 0 0 0 0 0 0 0 0 0 0 0 0 0 0 0 0 0 0 0 0 0 0 0 0 0 0 0 0 0 0 0 0 0 0
0 0 0 0 0 0 0 0 0 0 0 0 0 0 0 0 0 0 0 0 0 0 0 0 0 0 0 0 0 0 0 0 0 0 0 0 0 0
0 0 0 0 0 0 0 0 0 0 0 0 0 0 0 0 0 0 0 0 0 0 0 0 0 0 0 0 0 0 0 0 0 0 0 0 0 0
0 0 0 0 0 0 0 0 0 0 0 0 0 0 0 0 0 0 0 0 0 0 0 0 0 0 0 0 0 0 0 0 0 0 0 0 0 0
0 0 0 0 0 0 0 0 0 0 0 0 0 0 0 0 0 0 0 0 0 0 0 0 0 0 0 0 0 0 0 0 0 0 0 0 0 0
0 0 0 0 0 0 0 0 0 0 0 0 0 0 0 0 0 0 0 0 0 0 0 0 0 0 0 0 0 0 0 0 0 0 0 0 0 0
0 0 0 0 0 0 0 0 0 0 0 0 0 0 0 0 0 0 0 0 0 0 0 0 0 0 0 0 0 0 0 0 0 0 0 0 0 0
0 0 0 0 0 0 0 0 0 0 0 0 0 0 0 0 0 0 0 0 0 0 0 0 0 0 0 0 0 0 0 0 0 0 0 0 0 0
0 0 0 0 0 0 0 0 0 0 0 0 0 0 0 0 0 0 0 0 0 0 0 0 0 0 0 0 0 0 0 0 0 0 0 0 0 0
0 0 0 0 0 0 0 0 0 0 0 0 0 0 0 0 0 0 0 0 0 0 0 0 0 0 0 0 0 0 0 0 0 0 0 0 0 0
0 0 0 0 0 0 0 0 0 0 0 0 0 0 0 0 0 0 0 0 0 0 0 0 0 0 0 0 0 0 0 0 0 0 0 0 0 0
0 0 0 0 0 0 0 0 0 0 0 0 0 0 0 0 0 0 0 0 0 0 0 0 0 0 0 0 0 0 0 0 0 0 0 0 0 0
0 0 0 0 0 0 0 0 0 0 0 0 0 0 0 0 0 0 0 0 0 0 0 0 0 0 0 0 0 0 0 0 0 0 0 0 0 0
0 0 0 0 0 0 0 0 0 0 0 0 0 0 0 0 0 0 0 0 0 0 0 0 0 0 0 0 0 0 0 0 0 0 0 0 0 0
Wind_Speed
3 4 3 2 3 2 2 1 1 1 2 2 2 2 2 2 2 1 1 2 2 2 3 3 4 4 4 4 3 3 3 3 3 2 1 1 3 4
2 3 3 3 3 3 2 2 1 1 1 2 2 2 3 3 4 3 2 2 1 2 1 2 2 3 3 3 3 2 2 2 1 1 1 0 1 3
4 4 4 4 3 3 3 3 2 2 1 2 2 2 3 3 4 3 2 1 0 1 1 1 1 1 1 2 2 1 1 1 1 1 0 1 2 3
4 5 5 4 5 4 3 3 3 2 1 2 3 3 3 3 3 4 4 3 1 1 1 1 1 2 2 2 2 1 1 1 1 1 1 2 3 4
4 5 5 5 5 4 4 4 3 3 2 2 2 2 2 3 3 4 5 4 3 1 1 1 2 2 3 3 3 3 2 2 3 2 3 3 4 5
4 5 5 5 5 5 4 4 4 4 3 2 2 2 2 3 3 3 4 4 4 3 2 2 2 3 3 3 3 3 3 4 4 4 5 5 5 6
4 4 5 6 7 5 4 4 4 3 3 3 2 3 3 3 3 3 3 3 3 2 2 2 2 2 3 4 4 4 5 5 5 6 6 7 7 7
3 3 3 4 5 6 6 6 4 3 3 3 2 3 3 3 3 3 3 3 3 3 3 4 2 2 3 2 4 5 6 6 6 7 7 8 8 9
3 3 4 5 5 4 5 5 4 4 3 2 2 3 3 3 3 4 4 3 4 4 3 4 3 3 3 4 5 5 7 8 8 8 9 9 10 10
3 3 3 4 6 6 4 4 4 3 3 2 2 3 3 3 3 3 4 5 4 4 2 3 3 3 4 3 6 7 7 8 9 10 10 10 10 11
2 3 3 3 6 9 5 5 5 5 5 5 6 6 7 7 5 3 3 3 4 4 2 2 3 4 4 4 5 7 8 9 10 11 11 11 11 10
2 2 4 4 5 6 3 4 5 5 6 6 6 6 5 5 6 2 1 2 3 4 3 2 3 4 4 3 3 3 5 8 10 11 11 11 11 7
2 1 1 3 4 5 5 3 5 6 5 5 4 4 3 3 2 2 2 2 3 4 4 2 3 3 3 5 4 4 4 4 5 6 9 10 11 8
2 1 1 4 5 6 5 6 8 8 4 4 3 3 3 3 3 3 4 3 4 5 5 4 3 3 4 5 5 4 4 4 4 5 5 7 8 10
1 3 5 6 6 5 6 8 6 3 3 3 3 4 3 3 3 3 4 4 5 6 5 4 3 3 3 5 5 5 6 5 4 4 5 5 5 4
2 4 7 7 5 6 6 4 3 3 3 3 4 4 3 3 3 3 3 3 4 5 5 5 5 4 4 5 5 6 5 5 5 5 5 5 5 4
3 2 2 2 2 3 3 3 3 3 3 3 3 3 3 3 3 3 3 3 4 5 5 4 4 4 5 5 5 6 6 6 5 6 6 6 5 5
3 2 3 3 3 3 3 3 3 3 3 3 3 3 3 4 4 3 3 4 5 5 4 4 4 5 5 5 5 6 5 6 6 6 6 7 7 5
2 2 3 3 3 3 3 3 3 3 3 3 3 3 4 4 4 4 4 4 5 5 5 4 4 4 6 8 6 5 6 6 6 6 6 6 8 7
2 3 3 3 3 3 3 3 3 3 3 3 3 4 4 4 4 4 4 5 5 5 5 4 4 4 6 8 8 7 7 6 6 7 7 7 7 8
3 3 3 3 3 3 3 3 3 3 4 3 3 4 4 4 5 5 5 7 6 5 6 6 6 8 6 5 6 7 5 7 8 7 7 7 8 7
3 3 3 3 3 3 3 3 3 3 4 3 4 4 4 4 5 7 6 6 5 6 7 6 6 5 4 6 8 9 9 7 8 11 11 10 8 8
3 3 3 3 3 2 3 3 4 3 3 3 4 4 4 5 5 5 6 6 6 7 7 6 5 5 5 6 7 8 10 9 7 7 7 10 14 15
Wind_Direction
25 22 18 14 21 25 31 58 74 20 348 356 4 1 15 34 28 357 33 105 102 77 55 35 24 24 25 24 26 49 58 56 55 54 46 208 210 214
29 32 26 16 13 12 17 13 37 94 344 329 342 352 10 15 17 4 2 61 100 117 87 40 19 21 26 22 25 34 51 48 43 29 11 81 221 222
27 39 32 26 17 10 10 12 18 42 38 323 336 352 14 8 355 348 350 1 57 150 134 40 9 350 346 345 351 10 17 10 3 336 317 215 229 226
27 36 32 27 19 9 16 18 12 13 37 343 335 352 0 356 358 349 353 7 6 96 87 9 318 311 298 289 289 284 277 279 278 277 271 239 239 252
40 43 37 30 19 12 15 14 4 4 14 12 339 345 349 356 3 353 353 349 347 40 11 334 311 299 285 277 266 261 259 259 253 253 258 267 269 267
56 60 51 43 31 13 13 8 5 5 0 4 348 341 344 354 17 357 346 339 335 347 355 332 309 304 292 276 265 258 259 262 258 255 254 261 267 268
55 71 70 61 46 32 21 6 5 6 1 358 349 350 353 4 358 341 340 325 320 335 344 325 314 297 287 274 265 260 257 259 259 256 257 258 261 264
38 54 81 62 41 28 12 6 10 17 2 356 346 350 340 342 342 338 334 342 322 319 338 313 317 300 282 261 265 262 258 262 263 261 259 259 261 261
32 34 32 43 34 7 353 346 344 336 337 338 343 335 329 334 343 332 326 318 293 291 319 304 310 308 298 296 283 276 266 258 257 261 264 263 262 262
37 37 46 41 19 11 357 354 344 336 313 328 321 307 308 305 303 297 294 301 298 306 324 301 303 299 303 299 273 273 272 268 266 267 268 267 264 261
39 45 48 54 22 15 9 348 338 334 332 332 318 305 303 310 309 325 325 328 315 306 320 315 311 311 300 290 287 280 281 279 275 272 270 269 266 263
16 44 39 37 17 9 1 341 330 323 329 325 314 308 302 301 304 289 298 311 308 305 315 328 312 322 309 294 304 305 291 285 282 277 274 270 267 262
353 3 7 3 349 338 331 311 304 308 308 308 305 306 312 313 310 299 292 278 285 283 294 310 300 301 284 293 297 287 287 290 289 283 276 273 271 257
326 338 337 330 323 316 311 302 305 311 301 301 301 303 304 302 299 299 297 293 277 275 284 289 283 286 293 296 295 292 290 286 285 285 281 281 275 265
304 312 316 309 308 300 293 300 305 299 294 294 292 287 282 285 295 299 295 292 291 288 292 290 286 287 280 287 293 298 302 290 275 284 285 283 280 279
303 301 302 295 289 289 297 294 280 271 271 269 272 275 282 291 291 288 290 293 295 294 290 287 284 282 280 279 283 289 291 287 295 291 286 283 278 270
303 289 286 291 293 293 292 288 288 295 293 289 287 293 296 297 293 288 285 287 285 287 292 293 285 276 268 273 282 281 284 287 288 292 296 290 280 271
312 289 288 290 292 296 299 302 302 304 296 296 296 295 296 293 290 291 289 288 287 285 287 291 301 306 304 286 258 278 284 287 291 292 290 288 286 280
279 272 278 284 289 293 295 298 298 302 301 294 292 294 295 296 295 293 290 288 285 284 286 290 298 302 302 298 292 275 282 288 289 287 282 279 282 281
247 260 269 275 282 285 288 293 298 304 309 302 298 301 301 300 299 295 291 289 288 289 287 286 281 279 277 281 287 289 275 276 285 287 288 285 280 281
252 254 260 268 276 282 286 287 288 292 300 304 299 296 296 297 295 292 290 292 291 289 287 281 274 274 276 284 287 286 283 274 275 280 288 291 292 291
256 257 259 264 272 278 282 285 288 292 298 298 299 297 292 289 288 289 290 290 286 283 284 283 282 283 284 283 285 289 292 291 284 281 276 273 277 279
253 257 257 261 262 269 278 281 283 284 285 288 292 294 291 288 287 285 286 286 287 287 289 291 290 283 277 276 282 287 290 294 294 292 285 278 273 274